Wind_Speed
16 15 15 14 15 15 15 15 15 15 15 15 15 14 14 14 14 13 13 12 12 12 11 11 10 10 10 10 10 10 9 9 10 11 11 12 12 12
17 17 16 16 16 15 15 16 16 16 16 16 16 16 15 15 15 15 14 14 13 13 12 11 11 11 11 10 10 10 10 10 10 10 11 12 12 13
19 19 19 18 17 17 16 16 16 16 17 17 17 17 17 17 16 16 15 15 14 13 13 12 12 12 11 11 11 11 11 11 11 11 11 12 13 13
21 21 20 19 19 18 18 18 17 17 18 18 18 18 18 18 17 17 17 15 15 15 14 14 14 13 13 12 12 12 12 12 12 12 12 12 13 13
22 21 21 20 20 19 19 19 19 18 18 18 19 19 19 19 19 18 18 17 16 16 15 15 15 14 14 13 13 13 12 13 13 13 14 14 13 13
22 21 21 21 21 21 21 20 19 19 20 19 20 20 20 20 19 18 18 17 17 17 17 16 17 16 15 15 15 14 14 14 13 14 14 15 15 15
23 22 22 22 22 22 21 21 20 20 20 20 20 20 20 19 19 19 18 18 18 18 18 18 17 17 16 16 16 16 16 16 15 15 15 15 15 16
24 24 23 23 23 23 22 22 22 21 20 20 20 20 20 20 20 20 20 20 20 19 19 18 18 18 17 17 17 17 17 18 18 18 17 17 17 17
23 23 23 23 24 24 24 24 23 22 22 21 21 21 21 21 21 21 21 21 20 20 20 20 19 19 18 18 18 19 18 19 20 20 20 19 19 19
24 24 24 24 24 24 25 25 24 24 24 24 23 23 22 22 22 22 21 21 21 22 22 21 21 20 20 20 20 20 20 20 20 20 20 21 20 20
25 24 24 25 25 25 26 26 26 26 26 26 25 25 24 24 23 23 23 23 23 23 23 22 22 22 22 22 22 22 22 21 21 21 22 22 22 22
26 26 25 25 25 26 27 27 27 27 27 27 27 26 26 25 25 25 25 25 25 25 24 24 23 23 23 23 24 24 24 23 22 22 22 23 23 22
27 27 26 25 25 25 26 26 26 26 27 27 27 27 27 27 27 26 26 26 26 26 26 26 25 25 25 25 25 25 25 24 24 24 23 23 24 24
28 28 27 26 26 26 26 25 26 26 27 27 26 26 27 28 27 27 27 27 26 26 26 26 27 26 26 25 26 25 26 25 25 25 25 25 25 24
28 28 28 27 27 26 26 26 26 27 27 27 27 27 27 28 28 28 28 27 27 26 26 26 26 27 26 26 26 27 26 26 26 25 25 26 26 25
29 29 29 28 27 27 27 27 27 27 27 28 27 27 27 28 28 29 29 29 29 28 28 28 28 28 28 27 26 26 26 26 26 26 26 26 27 26
29 30 29 29 29 28 28 27 27 27 28 28 28 28 29 29 30 30 30 30 30 30 29 29 28 28 28 27 27 27 26 26 27 27 27 27 26 26
30 29 29 30 30 30 29 29 28 28 28 29 29 30 31 31 31 31 31 31 31 31 31 30 30 30 30 30 30 29 28 28 28 28 28 27 27 26
31 31 31 31 31 31 30 30 30 29 30 30 31 31 32 32 32 32 32 32 32 31 32 32 32 32 32 32 32 31 30 29 29 29 28 27 27 27
32 32 32 32 32 32 31 31 31 31 31 31 32 33 32 32 32 33 32 33 33 33 33 33 33 33 33 33 33 32 31 31 30 30 29 28 28 27
31 32 32 32 32 32 32 32 32 32 32 32 32 32 33 33 33 33 33 33 33 33 33 34 34 34 33 33 33 32 32 32 32 32 31 31 30 30
31 31 31 31 32 32 32 33 33 33 33 33 33 33 32 32 33 33 33 33 34 34 34 34 34 33 33 33 32 32 33 33 32 32 32 32 32 32
31 31 32 32 32 33 33 34 34 34 34 33 33 33 32 32 32 32 33 33 33 34 34 33 33 33 33 33 33 33 33 33 34 33 33 33 33 33
Wind_Direction
268 269 270 270 269 271 269 268 265 266 267 267 267 266 265 265 266 269 270 274 275 278 279 279 283 284 287 289 294 293 287 280 275 272 271 272 274 274
268 269 269 270 271 270 269 267 265 264 265 265 265 265 264 265 264 265 269 271 272 276 277 277 280 282 283 284 288 288 282 280 277 276 273 274 274 275
267 269 269 269 268 268 267 268 267 266 265 264 264 265 265 264 264 265 267 270 270 271 272 273 277 280 282 283 284 284 283 281 280 281 281 278 278 278
269 269 269 268 267 266 266 266 267 267 266 264 263 264 264 264 264 265 265 267 267 268 271 271 273 276 277 280 281 281 280 280 279 280 280 281 281 281
268 268 267 267 266 266 266 266 266 267 267 265 262 262 262 264 264 263 263 263 264 266 268 268 269 272 274 275 276 278 278 278 278 279 279 280 281 280
266 267 265 264 264 265 266 266 266 267 266 265 264 261 260 261 262 262 261 262 262 264 267 266 267 268 270 272 274 276 278 278 279 282 281 280 280 281
264 265 265 263 263 264 265 266 266 266 266 265 264 261 259 259 260 261 262 261 262 263 267 267 267 267 269 271 274 276 276 275 277 279 280 280 281 282
264 264 265 264 264 264 265 266 266 265 265 266 266 262 260 259 259 259 261 263 263 261 263 265 267 268 268 269 272 275 274 274 275 277 279 279 279 281
266 267 268 268 267 266 264 264 264 264 263 265 265 263 261 260 259 260 261 262 262 260 260 263 265 267 268 269 272 275 277 276 276 276 277 278 278 279
266 267 269 268 268 266 264 263 262 262 261 263 264 262 261 261 261 261 261 260 262 261 260 262 264 267 268 269 272 274 276 277 279 278 276 276 277 277
268 268 270 268 266 265 264 263 262 262 261 263 264 261 260 261 261 261 261 262 262 262 262 262 264 266 268 269 271 272 273 275 278 279 278 276 276 276
268 269 269 268 266 266 264 264 263 262 260 261 264 262 259 258 259 260 261 262 262 262 263 263 263 265 267 270 272 272 273 273 273 276 277 278 277 277
267 267 267 266 266 265 264 264 263 262 261 262 263 261 258 258 258 259 261 262 263 263 265 266 265 266 267 270 272 273 273 273 273 274 275 276 277 277
264 265 265 265 265 264 265 264 263 262 262 262 262 261 259 258 257 258 261 262 263 264 265 267 266 265 267 269 271 273 275 275 274 275 275 275 275 275
264 264 263 264 264 264 265 264 263 262 262 263 262 261 260 258 257 258 261 263 263 265 266 267 267 265 265 268 270 271 273 274 275 275 275 275 275 275
262 262 262 262 263 263 264 264 264 262 261 261 260 259 259 260 259 260 262 264 265 265 266 267 268 267 267 268 269 270 272 273 274 274 276 276 277 277
262 262 261 261 263 263 264 264 263 262 261 260 260 259 259 261 262 262 263 264 265 266 266 266 266 267 269 269 270 271 273 274 275 276 276 276 277 277
262 261 261 261 262 263 264 264 263 263 262 261 261 261 260 261 261 262 262 263 264 264 265 265 266 267 268 269 270 271 271 272 273 274 275 275 275 276
262 262 261 262 264 264 264 263 263 263 263 263 263 262 262 261 261 261 261 262 264 264 265 265 266 267 268 269 269 270 269 269 270 271 272 273 274 275
262 262 261 262 263 263 263 263 264 264 264 264 264 264 263 263 262 262 262 263 264 264 265 267 267 268 269 269 270 269 268 268 268 269 270 271 272 274
263 262 262 262 262 261 262 263 265 265 264 264 264 264 264 263 263 262 262 263 263 264 265 267 268 269 270 270 270 270 270 269 269 269 270 271 271 272
263 263 263 263 262 262 263 264 264 264 264 263 263 264 265 265 264 263 263 263 264 264 265 267 268 270 270 270 269 270 271 270 269 270 271 272 273 273
263 263 263 262 262 263 264 264 264 264 264 264 263 262 263 264 263 263 263 264 265 265 265 266 267 269 269 269 269 270 271 271 271 271 271 272 273 273
Height
5842 5842 5842 5841 5841 5841 5841 5841 5841 5841 5841 5841 5841 5841 5842 5842 5841 5841 5841 5841 5841 5840 5840 5839 5839 5838 5837 5836 5835 5833 5832 5831 5832 5832 5832 5832 5832 5832
5838 5838 5837 5837 5837 5837 5837 5836 5837 5837 5837 5837 5837 5837 5838 5838 5838 5838 5838 5837 5837 5837 5837 5837 5836 5835 5835 5834 5833 5832 5831 5830 5830 5830 5830 5829 5829 5829
5833 5833 5833 5833 5832 5832 5832 5832 5832 5832 5833 5833 5833 5833 5833 5834 5833 5834 5833 5833 5834 5834 5834 5834 5833 5833 5832 5831 5830 5830 5829 5828 5828 5827 5827 5826 5826 5825
5827 5827 5827 5827 5827 5827 5827 5827 5827 5828 5828 5828 5828 5828 5829 5829 5829 5829 5829 5829 5830 5830 5830 5830 5830 5830 5829 5829 5828 5827 5826 5826 5825 5824 5824 5823 5822 5821
5821 5821 5821 5822 5822 5822 5822 5822 5822 5823 5823 5823 5823 5823 5824 5824 5824 5825 5825 5825 5825 5825 5826 5826 5826 5826 5826 5825 5825 5824 5823 5823 5822 5821 5820 5819 5819 5818
5815 5816 5816 5816 5816 5816 5816 5816 5816 5817 5817 5817 5818 5818 5818 5819 5819 5820 5820 5821 5821 5821 5822 5822 5822 5822 5822 5822 5821 5821 5820 5819 5818 5818 5816 5816 5815 5814
5809 5809 5809 5810 5810 5810 5811 5811 5811 5811 5812 5812 5812 5813 5813 5814 5814 5815 5815 5816 5816 5817 5817 5817 5818 5818 5817 5817 5817 5816 5816 5815 5815 5814 5813 5812 5811 5810
5803 5803 5803 5803 5803 5804 5805 5805 5806 5806 5806 5807 5807 5807 5808 5808 5809 5809 5810 5811 5811 5812 5812 5812 5812 5812 5813 5812 5812 5811 5811 5810 5810 5809 5808 5808 5807 5805
5796 5796 5796 5796 5797 5797 5798 5798 5799 5799 5800 5801 5801 5801 5802 5802 5803 5803 5804 5804 5805 5806 5806 5807 5807 5807 5807 5807 5807 5807 5806 5805 5804 5804 5803 5802 5801 5800
5789 5790 5790 5790 5790 5790 5791 5791 5792 5792 5793 5794 5794 5795 5795 5796 5797 5797 5798 5798 5799 5800 5800 5801 5801 5802 5802 5802 5802 5801 5801 5800 5799 5798 5797 5797 5796 5795
5782 5782 5782 5783 5783 5783 5783 5784 5784 5785 5785 5786 5787 5787 5788 5789 5790 5791 5792 5792 5793 5793 5794 5795 5795 5795 5796 5796 5795 5795 5795 5794 5793 5792 5791 5790 5789 5788
5774 5774 5775 5775 5775 5775 5776 5776 5777 5777 5778 5779 5779 5780 5781 5782 5783 5784 5785 5786 5786 5787 5787 5788 5788 5788 5789 5789 5789 5788 5788 5787 5787 5786 5785 5784 5783 5781
5766 5767 5767 5767 5767 5767 5768 5768 5769 5769 5770 5771 5771 5772 5773 5775 5776 5777 5778 5779 5779 5780 5780 5780 5781 5781 5782 5782 5781 5781 5780 5780 5779 5779 5778 5777 5776 5775
5758 5759 5759 5759 5760 5760 5760 5761 5761 5762 5762 5763 5763 5764 5766 5767 5768 5769 5770 5771 5771 5772 5773 5773 5773 5774 5774 5774 5774 5773 5773 5772 5772 5771 5770 5770 5769 5768
5750 5750 5751 5751 5752 5752 5753 5753 5753 5754 5754 5755 5756 5757 5758 5759 5760 5761 5762 5763 5763 5764 5765 5765 5765 5766 5766 5766 5766 5766 5765 5764 5764 5763 5763 5762 5761 5760
5741 5741 5742 5742 5743 5744 5744 5745 5745 5745 5746 5747 5748 5749 5749 5750 5751 5753 5754 5754 5755 5756 5756 5757 5757 5757 5758 5758 5758 5758 5757 5756 5756 5756 5755 5754 5753 5752
5732 5732 5733 5734 5734 5735 5736 5736 5736 5737 5737 5739 5739 5740 5741 5742 5743 5744 5745 5746 5747 5747 5748 5748 5749 5749 5749 5749 5749 5749 5749 5748 5748 5747 5747 5746 5745 5744
5722 5723 5724 5724 5725 5726 5726 5727 5728 5728 5729 5730 5731 5732 5732 5733 5734 5735 5736 5737 5738 5738 5739 5739 5740 5740 5740 5741 5741 5741 5740 5740 5739 5739 5738 5737 5736 5736
5712 5713 5714 5715 5716 5716 5717 5718 5718 5719 5719 5720 5721 5722 5723 5724 5725 5726 5727 5727 5728 5729 5729 5729 5730 5730 5731 5731 5731 5731 5731 5730 5730 5730 5729 5728 5728 5727
5703 5704 5704 5705 5706 5706 5707 5708 5709 5709 5710 5710 5711 5712 5712 5713 5714 5716 5717 5717 5718 5718 5719 5719 5720 5720 5720 5721 5721 5721 5720 5720 5720 5720 5720 5719 5719 5719
5692 5693 5694 5695 5695 5696 5697 5697 5698 5699 5700 5700 5701 5701 5702 5703 5704 5705 5706 5707 5708 5708 5709 5709 5710 5710 5709 5709 5710 5710 5710 5710 5710 5710 5710 5710 5709 5709
5681 5682 5683 5684 5684 5685 5686 5687 5687 5688 5689 5689 5690 5691 5692 5692 5693 5694 5695 5696 5697 5697 5698 5698 5699 5699 5699 5699 5699 5700 5700 5700 5700 5700 5700 5700 5699 5699
5670 5671 5672 5673 5673 5674 5675 5675 5676 5677 5677 5678 5679 5680 5681 5682 5683 5683 5684 5685 5686 5686 5687 5687 5688 5688 5688 5688 5689 5689 5689 5688 5688 5689 5689 5689 5688 5688